{"data":{"norad_id":46335,"epoch":"2026-05-24T21:07:32.215872Z","epoch_age_seconds":75487,"freshness":"FRESH","line1":"1 46335U 20062L   26144.88023398  .00827383  39672-3  80897-3 0  9995","line2":"2 46335  53.0272 311.8126 0011750 280.5167  79.4542 16.10763661316959","mean_motion":16.10763661,"eccentricity":0.001175,"inclination_deg":53.0272,"raan_deg":311.8126,"arg_perigee_deg":280.5167,"mean_anomaly_deg":79.4542,"bstar":0.00080897,"rev_number":31695,"period_min":89.398589927588,"perigee_km":236.96730486954,"apogee_km":252.53108743049,"semimajor_km":6622.88619615,"source":"CELESTRAK","updated_at":"2026-05-25T13:38:16.470820Z"}}